Tracking 18917 objects as of 16-Jan-2018
HD Live streaming from Space Station
objects crossing your sky now

BEIDOU-3 M1

Track BEIDOU-3 M1 now!
BEIDOU-3 M1 is classified as:


NORAD ID: 40748
Int'l Code: 2015-037A
Perigee: 21,509.5 km
Apogee: 21,560.9 km
Inclination: 55.6 °
Period: 773.2 minutes
Semi major axis: 27906 km
RCS: Unknown
Launch date: July 25, 2015
Source: People's Republic of China (PRC)
Launch site: Xichang Space Center, China (XSC)
aabbcc
Your satellite tracking list
Your tracking list is empty




NASA's NSSDC Master Catalog

Two Line Element Set (TLE):
1 40748U 15037A   18015.81541550 -.00000055 +00000-0 +00000-0 0  9994
2 40748 055.5802 046.2820 0009213 264.2591 212.9165 01.86231308016865
Source of the keplerian elements: AFSPC